UAL1221 KEWR-KLAX

Flight info

Callsign UAL1221
Flight time N/A
Altitude 32000
Route DCT PARKE J6 MRB/N0441F340 J6 HVQ Q68 RAMRD DCT ARG DCT TUL DCT MMB DCT FTI J8 GUP J96 DRK J231 HIPPI DCT GABBL HLYWD1
Aircraft A21N/M-SDE2E3FGHIRWXY/LB1

Departure

Time 2026-04-20 23:48
Airport Newark Liberty International Airport (KEWR)

Arrival

Time N/A
Airport Los Angeles International Airport (KLAX)
Time Latitude Longitude Altitude Speed Heading
2026-04-20 23:26 40.69788 -74.17555 29 ft 0 kts 150°
2026-04-20 23:38 40.69789 -74.17556 25 ft 3 kts 153°
2026-04-20 23:38 40.69806 -74.17567 27 ft 3 kts 153°
2026-04-20 23:38 40.69821 -74.17580 28 ft 3 kts 133°
2026-04-20 23:39 40.69831 -74.17600 29 ft 3 kts 98°
2026-04-20 23:39 40.69832 -74.17624 27 ft 3 kts 84°
2026-04-20 23:39 40.69827 -74.17642 30 ft 0 kts 32°
2026-04-20 23:42 40.69836 -74.17634 27 ft 3 kts 32°
2026-04-20 23:42 40.69859 -74.17611 26 ft 5 kts 40°
2026-04-20 23:42 40.69897 -74.17565 28 ft 10 kts 45°
2026-04-20 23:43 40.69952 -74.17494 26 ft 12 kts 56°
2026-04-20 23:43 40.69945 -74.17374 28 ft 16 kts 115°
2026-04-20 23:43 40.69869 -74.17234 28 ft 21 kts 132°
2026-04-20 23:43 40.69746 -74.17091 29 ft 25 kts 146°
2026-04-20 23:44 40.69582 -74.16997 28 ft 27 kts 165°
2026-04-20 23:44 40.69391 -74.16972 25 ft 29 kts 184°
2026-04-20 23:44 40.69196 -74.17050 28 ft 30 kts 207°
2026-04-20 23:44 40.69003 -74.17175 26 ft 31 kts 205°
2026-04-20 23:45 40.68826 -74.17286 29 ft 28 kts 206°
2026-04-20 23:45 40.68647 -74.17403 26 ft 29 kts 206°
2026-04-20 23:45 40.68456 -74.17523 26 ft 31 kts 205°
2026-04-20 23:45 40.68255 -74.17651 26 ft 33 kts 206°
2026-04-20 23:46 40.68044 -74.17784 26 ft 34 kts 205°
2026-04-20 23:46 40.67829 -74.17921 28 ft 27 kts 206°
2026-04-20 23:46 40.67692 -74.18009 25 ft 21 kts 206°
2026-04-20 23:46 40.67625 -74.18044 27 ft 1 kts 181°
2026-04-20 23:47 40.67611 -74.18041 29 ft 4 kts 165°
2026-04-20 23:47 40.67587 -74.18022 27 ft 1 kts 137°
2026-04-20 23:47 40.67570 -74.17994 26 ft 8 kts 118°
2026-04-20 23:47 40.67600 -74.17908 26 ft 16 kts 27°
2026-04-20 23:48 40.67879 -74.17733 27 ft 91 kts 26°
2026-04-20 23:48 40.68754 -74.17173 27 ft 183 kts 25°
2026-04-20 23:48 40.70063 -74.16400 276 ft 225 kts 18°
2026-04-20 23:48 40.71504 -74.15513 1503 ft 225 kts 23°
2026-04-20 23:49 40.72878 -74.14596 3136 ft 221 kts 23°
2026-04-20 23:49 40.74303 -74.13775 4428 ft 225 kts 13°
2026-04-20 23:49 40.75856 -74.13527 5472 ft 229 kts 354°
2026-04-20 23:49 40.77368 -74.14182 6505 ft 232 kts 326°
2026-04-20 23:50 40.78432 -74.15752 7574 ft 235 kts 297°
2026-04-20 23:50 40.78822 -74.17872 8567 ft 244 kts 277°
2026-04-20 23:50 40.78792 -74.20195 9516 ft 259 kts 266°
2026-04-20 23:50 40.78523 -74.22547 10621 ft 270 kts 262°
2026-04-20 23:51 40.78142 -74.25083 11354 ft 291 kts 260°
2026-04-20 23:51 40.77728 -74.27748 12446 ft 300 kts 261°